KC5GLG Weather Reports


time (UTC)temp
C
wind
direction
speed
KPH
gust
KPH
rain 1hr
cm
rain 24hr
cm
rain mn
cm
humidity
%
barometer
mb
20260502161622 19 327 4.8 0.0 0.00 0.00 0.18 68 1018.8
20260502151608 16 16 4.8 0.0 0.00 0.00 0.18 80 1018.7
20260502113049 12 40 3.2 0.0 0.00 0.00 0.18 79 1015.8
20260502101510 12 263 1.6 0.0 0.00 0.00 0.18 79 1015.2
20260502100107 12 344 1.6 0.0 0.00 0.00 0.18 79 1015.0
20260502090106 13 19 3.2 0.0 0.00 0.00 0.15 78 1014.6
20260502054554 12 57 0.0 0.0 0.00 0.00 0.05 79 1014.4
20260502053020 12 57 0.0 0.0 0.00 0.00 0.03 79 1014.5
20260502051612 12 57 1.6 0.0 0.00 0.00 0.03 79 1014.6
20260502041553 12 20 3.2 0.0 0.00 0.00 2.59 79 1014.7
20260502040113 12 49 3.2 0.0 0.00 0.00 2.57 79 1014.7
20260502031611 11 97 6.4 0.0 0.00 0.00 2.51 79 1014.1
20260502024535 11 22 6.4 0.0 0.00 0.00 2.46 80 1014.5
20260502021530 12 65 8.0 0.0 0.00 0.00 2.44 79 1013.3
20260502014600 12 284 6.4 0.0 0.00 0.00 2.39 79 1013.4
20260502013053 12 19 4.8 0.0 0.00 0.00 2.36 79 1013.3
20260502011616 12 300 6.4 0.0 0.00 0.00 2.34 79 1012.6
20260502004603 12 343 4.8 0.0 0.00 0.00 2.31 79 1012.5
20260502001553 12 71 4.8 0.0 0.00 0.00 2.26 79 1011.1
20260502000042 12 360 4.8 0.0 0.00 0.00 2.24 79 1010.9
20260501234634 12 22 6.4 0.0 0.00 0.00 2.21 79 1010.7
20260501223059 12 51 4.8 0.0 0.00 0.00 2.11 81 1011.8
20260501214632 12 55 6.4 0.0 0.00 0.00 2.06 81 1011.2
20260501211516 13 337 8.0 0.0 0.00 0.00 2.01 81 1010.8
20260501210009 13 15 4.8 0.0 0.00 0.00 1.98 81 1010.6
20260501204600 13 19 9.7 0.0 0.00 0.00 1.98 80 1010.8
20260501203055 13 76 8.0 0.0 0.00 0.00 1.96 80 1009.9
20260501201544 13 41 6.4 0.0 0.00 0.00 1.93 79 1010.0
20260501200132 13 46 9.7 0.0 0.00 0.00 1.91 79 1009.8
20260501194531 13 11 12.9 0.0 0.00 0.00 1.88 78 1008.9
20260501190157 13 11 8.0 0.0 0.00 0.00 1.80 76 1008.8
20260501184550 13 355 9.7 0.0 0.00 0.00 1.78 76 1009.8
20260501183038 13 5 11.3 0.0 0.00 0.00 1.75 76 1010.5
20260501181530 13 338 8.0 0.0 0.00 0.00 1.73 76 1011.0